Weather History for Cincinnati, OH

Change the Weather History Date:

Tuesday, March 5, 2013

  Actual Average Record
Temperature  
Mean Temperature 36 °F -  
Max Temperature 39 °F 50 °F 80 °F (1983)
Min Temperature 32 °F 31 °F 1 °F (1978)
Degree Days  
Heating Degree Days 30    
Moisture  
Dew Point 33 °F    
Average Humidity 88    
Maximum Humidity 100    
Minimum Humidity 60    
Precipitation  
Precipitation 0.17 in - - ()
Sea Level Pressure  
Sea Level Pressure 29.72 in    
Wind  
Wind Speed 8 mph (NNW)    
Max Wind Speed 21 mph    
Max Gust Speed 29 mph    
Visibility 4 miles    
Events Rain , Snow    
Averages and records for this station are not official NWS values.
T = Trace of Precipitation, MM = Missing Value Source: NWS Daily Summary

Daily Weather History Graph

Daily Weather History Graph

Search for Another Location

Airport:

Trip Planner

Search our weather history database for the weather conditions in past years. The results will help you decide how hot, cold, wet, or windy it might be!

Date:

Astronomy

Mar. 05, 2013 Rise Set
Actual Time 7:03 AM EST 6:34 PM EST
Civil Twilight 6:37 AM EST 7:01 PM EST
Nautical Twilight 6:06 AM EST 7:32 PM EST
Astronomical Twilight 5:35 AM EST 8:03 PM EST
Moon 2:13 AM EST (3/5) 12:15 PM EST (3/5)
Length of Visible Light 12h 24m
Length of Day
11h 30m
Last Quarter, 41% of the Moon is Illuminated
Mar 5
Last Quarter
Mar 11
New
Mar 19
First Quarter
Mar 27
Full
Apr 3
Last Quarter

Hourly Weather History & Observations

Time (EST) Temp. Windchill Dew Point Humidity Pressure Visibility Wind Dir Wind Speed Gust Speed Precip Events Conditions
12:53 AM 37.9 °F 32.7 °F 25.0 °F 60% 30.02 in 10.0 mi NE 6.9 mph - N/A   Overcast
2:53 AM 37.0 °F 31.6 °F 27.0 °F 67% 30.00 in 10.0 mi NE 6.9 mph - N/A   Overcast
4:53 AM 36.0 °F 32.1 °F 30.0 °F 79% 29.96 in 10.0 mi NE 4.6 mph - N/A   Overcast
5:53 AM 37.0 °F 33.3 °F 28.9 °F 73% 29.96 in 10.0 mi ENE 4.6 mph - N/A   Overcast
6:53 AM 37.0 °F 32.4 °F 28.9 °F 73% 29.94 in 10.0 mi ENE 5.8 mph - N/A   Overcast
7:53 AM 37.4 °F 34.9 °F 28.4 °F 70% 29.92 in 10.0 mi ENE 3.5 mph - N/A   Overcast
8:53 AM 37.9 °F 34.4 °F 28.9 °F 70% 29.92 in 10.0 mi ENE 4.6 mph - N/A   Overcast
9:53 AM 39.0 °F 34.8 °F 28.9 °F 67% 29.88 in 10.0 mi ENE 5.8 mph - N/A   Overcast
10:53 AM 39.0 °F 34.8 °F 30.0 °F 70% 29.86 in 10.0 mi NE 5.8 mph - N/A   Overcast
11:53 AM 37.9 °F 32.7 °F 33.1 °F 83% 29.82 in 10.0 mi NE 6.9 mph - 0.00 in   Overcast
12:53 PM 39.0 °F 34.0 °F 34.0 °F 82% 29.78 in 10.0 mi ENE 6.9 mph - N/A   Overcast
1:53 PM 39.0 °F 36.8 °F 35.1 °F 86% 29.73 in 3.0 mi ENE 3.5 mph - 0.00 in Rain Light Rain
2:32 PM 39.2 °F 35.9 °F 37.4 °F 93% 29.70 in 3.0 mi East 4.6 mph - 0.00 in Rain Light Rain
2:53 PM 39.0 °F 36.8 °F 37.0 °F 93% 29.69 in 3.0 mi East 3.5 mph - 0.00 in   Overcast
3:17 PM 39.2 °F 35.0 °F 37.4 °F 93% 29.66 in 2.0 mi NNE 5.8 mph - N/A   Overcast
3:30 PM 37.4 °F 33.8 °F 37.4 °F 100% 29.65 in 2.0 mi NE 4.6 mph - 0.00 in Rain Light Rain
3:53 PM 39.0 °F 36.8 °F 37.9 °F 96% 29.65 in 2.0 mi NNE 3.5 mph - 0.00 in Rain Light Rain
4:00 PM 39.2 °F 35.9 °F 37.4 °F 93% 29.63 in 3.0 mi NE 4.6 mph - 0.00 in Rain Light Rain
4:23 PM 39.2 °F 35.9 °F 37.4 °F 93% 29.62 in 3.0 mi NNE 4.6 mph - 0.01 in Rain Light Rain
4:53 PM 39.0 °F 34.8 °F 37.9 °F 96% 29.62 in 3.0 mi NNE 5.8 mph - 0.03 in Rain Light Rain
5:53 PM 39.0 °F 36.8 °F 37.9 °F 96% 29.61 in 3.0 mi NW 3.5 mph - 0.01 in Rain Light Rain
6:04 PM 39.2 °F 35.9 °F 37.4 °F 93% 29.60 in 2.5 mi NW 4.6 mph - 0.02 in Rain Rain
6:11 PM 39.2 °F 37.0 °F 37.4 °F 93% 29.60 in 3.0 mi WNW 3.5 mph - 0.03 in Rain Rain
6:50 PM 39.2 °F 34.2 °F 39.2 °F 100% 29.62 in 3.0 mi West 6.9 mph - 0.06 in Rain Rain
6:53 PM 39.0 °F 34.0 °F 39.0 °F 100% 29.63 in 3.0 mi West 6.9 mph - 0.06 in Rain Rain
7:23 PM 39.2 °F 34.2 °F 39.2 °F 100% 29.62 in 4.0 mi West 6.9 mph - N/A Rain Light Rain
7:46 PM 37.4 °F 28.2 °F 35.6 °F 93% 29.63 in 5.0 mi West 16.1 mph 23.0 mph N/A Rain Rain
7:53 PM 36.0 °F 26.7 °F 34.0 °F 93% 29.65 in 4.0 mi West 15.0 mph 23.0 mph N/A Rain Heavy Rain
8:17 PM 33.8 °F 26.4 °F 32.0 °F 93% 29.64 in 1.8 mi WSW 9.2 mph - 0.05 in Snow Light Snow
8:42 PM 33.8 °F 25.3 °F 32.0 °F 93% 29.64 in 2.5 mi West 11.5 mph 24.2 mph 0.07 in Snow Light Snow
8:53 PM 33.1 °F 23.9 °F 32.0 °F 96% 29.66 in 3.0 mi West 12.7 mph 19.6 mph 0.07 in Snow Light Snow
9:30 PM 33.8 °F 23.2 °F 32.0 °F 93% 29.65 in 2.5 mi West 17.3 mph 25.3 mph 0.00 in Snow Light Snow
9:39 PM 33.8 °F 24.3 °F 32.0 °F 93% 29.66 in 2.0 mi West 13.8 mph 25.3 mph 0.00 in Snow Light Snow
9:53 PM 33.1 °F 22.2 °F 30.9 °F 92% 29.67 in 2.0 mi West 17.3 mph 24.2 mph 0.00 in Snow Light Snow
9:57 PM 33.8 °F 23.2 °F 30.2 °F 87% 29.66 in 1.8 mi West 17.3 mph 28.8 mph 0.00 in Snow Light Snow
10:05 PM 33.8 °F 22.5 °F 30.2 °F 87% 29.66 in 1.8 mi West 19.6 mph 27.6 mph 0.00 in Snow Light Snow
10:47 PM 32.0 °F 22.5 °F 30.2 °F 93% 29.67 in 1.5 mi West 12.7 mph 24.2 mph 0.00 in Snow Light Snow
10:48 PM 32.0 °F 22.1 °F 30.9 °F 96% 29.68 in 1.5 mi WSW 13.8 mph 24.2 mph 0.00 in Snow Light Snow
11:02 PM 32.0 °F 19.8 °F 30.2 °F 93% 29.67 in 1.2 mi West 20.7 mph 26.5 mph 0.00 in Snow Light Snow
11:31 PM 32.0 °F 23.0 °F 30.2 °F 93% 29.67 in 1.2 mi WSW 11.5 mph 24.2 mph 0.00 in Snow Light Snow
11:44 PM 32.0 °F 20.8 °F 30.2 °F 93% 29.67 in 1.0 mi WSW 17.3 mph 25.3 mph 0.00 in Snow Light Snow
11:49 PM 32.0 °F 21.2 °F 30.2 °F 93% 29.67 in 1.0 mi WSW 16.1 mph 25.3 mph 0.00 in Snow Light Snow
11:53 PM 32.0 °F 21.6 °F 30.0 °F 92% 29.68 in 1.0 mi WSW 15.0 mph - 0.00 in Snow Light Snow